Weather History for KNBT - September, 2012

Change the Weather History Date:

Tuesday, September 25, 2012

  Actual Average (KMRH) Record (KMRH)
Temperature  
Mean Temperature 70 °F -  
Max Temperature 75 °F 81 °F 91 °F (1961)
Min Temperature 66 °F 62 °F 41 °F (1949)
Cooling Degree Days 6    
Growing Degree Days 20 (Base 50)    
Moisture  
Dew Point 54 °F    
Average Humidity 57    
Maximum Humidity 84    
Minimum Humidity 46    
Precipitation  
Precipitation 0.00 in - - ()
Sea Level Pressure  
Sea Level Pressure 30.24 in    
Wind  
Wind Speed 6 mph (NE)    
Max Wind Speed 10 mph    
Max Gust Speed -    
Visibility 10 miles    
Events      
Averages and records for this station are not official NWS values.
T = Trace of Precipitation, MM = Missing Value Source: NWS Daily Summary

Daily Weather History Graph

Daily Weather History Graph

Search for Another Location

Airport or City:

Trip Planner

Search our weather history database for the weather conditions in past years. The results will help you decide how hot, cold, wet, or windy it might be!

Date:

Astronomy

Sep. 25, 2012 Rise Set
Actual Time 6:56 AM EDT 6:57 PM EDT
Civil Twilight 6:31 AM EDT 7:22 PM EDT
Nautical Twilight 6:01 AM EDT 7:52 PM EDT
Astronomical Twilight 5:32 AM EDT 8:21 PM EDT
Moon 4:13 PM EDT (9/25) 2:24 AM EDT (9/25)
Length of Visible Light 12h 51m
Length of Day
12h 01m
Waxing Gibbous, 80% of the Moon is Illuminated
Sep 25
Waxing Gibbous
Sep 29
Full
Oct 8
Last Quarter
Oct 15
New
Oct 21
First Quarter

Hourly Weather History & Observations

Time (EDT) Temp. Dew Point Humidity Pressure Visibility Wind Dir Wind Speed Gust Speed Precip Events Conditions
12:56 AM 66.9 °F 48.9 °F 52% 30.22 in 10.0 mi NE 3.5 mph - N/A   Clear
1:56 AM 66.9 °F 48.0 °F 51% 30.22 in 10.0 mi North 4.6 mph - N/A   Clear
2:56 AM 66.9 °F 48.9 °F 52% 30.21 in 10.0 mi North 4.6 mph - N/A   Clear
3:56 AM 66.0 °F 50.0 °F 56% 30.22 in 10.0 mi North 3.5 mph - N/A   Mostly Cloudy
4:56 AM 66.9 °F 50.0 °F 54% 30.23 in 10.0 mi North 4.6 mph - N/A   Scattered Clouds
5:56 AM 68.0 °F 51.1 °F 55% 30.24 in 10.0 mi NNE 5.8 mph - N/A   Scattered Clouds
6:56 AM 68.0 °F 51.1 °F 55% 30.25 in 10.0 mi NNE 5.8 mph - N/A   Scattered Clouds
7:56 AM 66.9 °F 53.1 °F 61% 30.27 in 10.0 mi NE 3.5 mph - N/A   Partly Cloudy
8:56 AM 71.1 °F 50.0 °F 47% 30.28 in 10.0 mi NE 8.1 mph - N/A   Mostly Cloudy
9:56 AM 72.0 °F 50.0 °F 46% 30.28 in 10.0 mi ENE 8.1 mph - N/A   Clear
10:56 AM 73.0 °F 51.1 °F 46% 30.27 in 10.0 mi ENE 10.4 mph - N/A   Clear
11:56 AM 73.0 °F 51.1 °F 46% 30.27 in 10.0 mi NE 8.1 mph - N/A   Clear
12:56 PM 73.0 °F 52.0 °F 48% 30.25 in 10.0 mi ENE 8.1 mph - N/A   Clear
1:56 PM 73.9 °F 53.1 °F 48% 30.25 in 10.0 mi NE 6.9 mph - N/A   Clear
2:56 PM 75.0 °F 54.0 °F 48% 30.23 in 10.0 mi ENE 8.1 mph - N/A   Clear
3:56 PM 73.9 °F 55.0 °F 52% 30.21 in 10.0 mi ENE 6.9 mph - N/A   Clear
4:56 PM 75.0 °F 57.0 °F 53% 30.21 in 10.0 mi NE 6.9 mph - N/A   Clear
5:56 PM 73.9 °F 57.9 °F 57% 30.23 in 10.0 mi NE 5.8 mph - N/A   Clear
6:56 PM 72.0 °F 60.1 °F 66% 30.24 in 10.0 mi NE 4.6 mph - N/A   Clear
7:56 PM 72.0 °F 61.0 °F 68% 30.24 in 10.0 mi East 5.8 mph - N/A   Partly Cloudy
8:56 PM 72.0 °F 63.0 °F 73% 30.24 in 10.0 mi East 6.9 mph - N/A   Clear
9:56 PM 71.1 °F 64.0 °F 78% 30.23 in 10.0 mi ESE 5.8 mph - N/A   Clear
10:56 PM 69.1 °F 64.0 °F 84% 30.21 in 10.0 mi SE 8.1 mph - N/A   Clear
11:56 PM 68.0 °F 57.9 °F 70% 30.22 in 10.0 mi South 4.6 mph - N/A   Clear